Tracking 19475 objects as of 18-Jan-2019
HD Live streaming from Space Station
objects crossing your sky now

COSMOS 737

Track COSMOS 737 now!
10-day predictions
COSMOS 737 is classified as:


NORAD ID: 7826
Int'l Code: 1975-045F
Perigee: 1,477.7 km
Apogee: 1,535.3 km
Inclination: 74.0 °
Period: 116.0 minutes
Semi major axis: 7877 km
RCS: 0.701 m2 (medium)
Launch date: May 28, 1975
Source: Commonwealth of Independent States (former USSR) (CIS)
Launch site: PLESETSK MISSILE AND SPACE COMPLEX (PKMTR)
aabbcc
Your satellite tracking list
Your tracking list is empty




NASA's NSSDC Master Catalog

Two Line Element Set (TLE):
1  7826U 75045F   19017.89841918 -.00000010  00000-0  37919-4 0  9995
2  7826  74.0172 270.4806 0036555  99.5911 338.3603 12.41705359978536
Source of the keplerian elements: AFSPC